COSMOS 970 DEB, 65008

Orbit data source: Space-Track

COSMOS 970 DEB, 65008 is space debris in LEO originally from a launch on Wed, 21 Dec 1977 UTC launched from the Tyuratam Missile And Space Complex (TTMTR). Debris objects in space refer to the collection of defunct objects orbiting the Earth. Examples of debris include non-operational satellites, rocket bodies, and fragments generated from explosions, collisions, or faulty payload assembly.

Loading next visibility...
Identifier
65008, 1977-121DV
Orbit
LEO
Country
Flag of CISCIS
Related business
Manufacturer
Unknown
Mission
Spacecraft
Bus & Motor
Unknown
Mass
Unknown
Launch date (UTC)
1977-12-21 (48 years ago)
Launch vehicle
Unknown
Launch site
Tyuratam Missile And Space Complex (TTMTR)
Object type
Payload
Rocket body
Debris
Shape & HBR
Unknown shape, 0.1 m
Radar Cross Section
Small (<0.1 m²)

Expand to show TLE details & history
Last TLE update: 2 days ago

TLE from 2 days ago
0 COSMOS 970 DEB
1 65008U 77121DV  26170.12355416  .00000562  00000-0  52966-3 0  9994
2 65008  65.8176  69.8419 0109798  78.7299 354.1549 13.86441104634856
Epoch: 2026-06-19T02:57Z
TLE epoch observation values (Epoch: 2026-06-19T02:57:55.079Z)
Latitude
60.72072°
Longitude
170.81637°
Altitude
870.625 km
Speed
7.464 km/s
True Right ascension
08h 10m 36s
True Declination
60° 34' 34"
Sunlit
Object was in daylight at epoch
Visualization orbit readout
Latitude
Unknown
Longitude
Unknown
Altitude
Unknown
Speed
Unknown
Apparent Right ascension
Unknown
Apparent Declination
Unknown
Sunlit
N/A
Visualization observer readout
Local Sidereal Time
08:32:37
Azimuth
Unknown
Elevation
Unknown
Doppler factor
Unknown
Orbital elements
Apogee altitude
1,019.988 km
Perigee altitude
859.292 km
Semi-major axis
7,317.777 km
Eccentricity
0.01098
Inclination
65.8176°
RAAN
69.8419°
Arg. of periapsis
78.7299°
True anomaly
354.02499°
Mean anomaly
354.1549°
Eccentric anomaly
354.09013°
Mean motion
3.46716 °/min
Orbital period
103.83 mins
BSTAR
0.00052966
Loading maneuver chart data...
Computing Atmospheric mass density...
Loading historical data...
Loading historical data...
Loading historical data...
Loading historical data...
Loading historical data...
Loading historical data...
Loading historical data...

Documentation

Showing up to 5 results
|